period_start,C,m1,H,J0,J1,J2,J3,J4,J5,JA,JB,JC,JD,JJ,JK,JN,#
2015-10-19 00:03:28,0.09,2.36,0.00,21.41,27.17,30.38,14.70,47.84,1019.56,2035.11,2648.44,2660.96,2896.59,600.27,601.22,53.53,0000 0000 0000 0000 000000
2015-10-19 00:08:29,0.17,2.36,0.00,21.45,27.17,30.36,14.80,47.75,1019.57,2035.10,2646.09,2659.29,2894.60,600.29,601.10,53.58,0000 0000 0000 0000 000000
2015-10-19 00:13:30,0.23,2.37,0.00,21.45,27.18,30.36,14.77,47.98,1019.58,2035.05,2642.54,2656.73,2891.76,600.20,601.12,53.63,0000 0000 0000 0000 000000
2015-10-19 00:18:32,0.30,2.39,0.00,21.41,27.18,30.38,14.75,47.91,1019.66,2035.04,2637.92,2653.32,2888.00,600.08,601.19,53.69,0000 0000 0000 0000 000000
2015-10-19 00:23:33,0.09,2.40,0.00,21.40,27.18,30.43,14.66,47.75,1019.82,2035.06,2635.68,2651.86,2886.13,599.62,600.87,53.74,0000 0000 0000 0000 000000
2015-10-19 00:28:35,0.06,2.40,0.00,21.42,27.18,30.43,14.75,47.79,1019.88,2035.02,2634.60,2651.04,2885.38,599.96,601.13,53.79,0000 0000 0000 0000 000000
2015-10-19 00:33:36,0.07,2.40,0.00,21.44,27.18,30.39,14.77,47.94,1019.86,2035.04,2633.52,2650.21,2884.66,600.02,601.16,53.84,0000 0000 0000 0000 000000
2015-10-19 00:38:38,0.07,2.41,0.00,21.44,27.19,30.41,14.77,47.96,1019.79,2035.03,2632.34,2649.35,2883.70,600.08,601.26,53.89,0000 0000 0000 0000 000000
2015-10-19 00:43:39,0.18,2.41,0.00,21.42,27.20,30.43,14.63,48.02,1019.60,2035.04,2629.72,2647.57,2881.62,599.73,600.76,53.94,0000 0000 0000 0000 000000
2015-10-19 00:48:40,0.14,2.42,0.00,21.45,27.20,30.41,14.82,48.13,1019.63,2035.03,2627.25,2645.82,2879.72,600.37,601.27,53.99,0000 0000 0000 0000 000000
2015-10-19 00:53:42,0.17,2.43,0.00,21.48,27.20,30.41,14.84,48.02,1019.58,2035.02,2624.47,2643.83,2877.71,600.19,601.08,54.04,0000 0000 0000 0000 000000
2015-10-19 00:58:43,0.12,2.44,0.00,21.50,27.20,30.40,14.78,48.03,1019.57,2035.02,2622.36,2642.35,2876.09,600.20,600.99,54.09,0000 0000 0000 0000 000000
2015-10-19 01:03:44,0.12,2.44,0.00,21.47,27.22,30.41,14.74,48.07,1019.58,2035.02,2620.25,2640.91,2874.55,600.13,601.00,54.14,0000 0000 0000 0000 000000
2015-10-19 01:08:46,0.17,2.45,0.00,21.47,27.22,30.46,14.69,48.04,1019.59,2035.01,2617.40,2639.02,2872.51,599.93,600.85,54.19,0000 0000 0000 0000 000000
2015-10-19 01:13:47,0.13,2.46,0.00,21.49,27.22,30.46,14.78,48.06,1019.57,2035.00,2615.05,2637.49,2870.69,600.11,600.93,54.24,0000 0000 0000 0000 000000
2015-10-19 01:18:48,0.14,2.47,0.00,21.48,27.23,30.43,14.74,48.09,1019.57,2035.00,2612.67,2635.92,2868.94,600.11,600.90,54.29,0000 0000 0000 0000 000000
2015-10-19 01:23:49,0.17,2.48,0.00,21.47,27.25,30.46,14.75,48.10,1019.56,2035.00,2609.86,2634.02,2866.90,600.22,601.07,54.34,0000 0000 0000 0000 000000
2015-10-19 01:28:50,0.17,2.48,0.00,21.48,27.25,30.44,14.76,48.14,1019.56,2035.00,2607.07,2632.13,2864.80,599.87,600.70,54.39,0000 0000 0000 0000 000000
2015-10-19 01:33:52,0.13,2.49,0.00,21.49,27.25,30.48,14.78,48.16,1019.57,2035.00,2604.68,2630.58,2863.18,600.12,600.87,54.44,0000 0000 0000 0000 000000
2015-10-19 01:38:53,0.14,2.50,0.00,21.49,27.25,30.45,14.76,48.18,1019.57,2035.00,2602.36,2628.96,2861.49,600.24,601.14,54.49,0000 0000 0000 0000 000000
2015-10-19 01:43:55,0.14,2.51,0.00,21.49,27.27,30.44,14.77,48.15,1019.58,2035.00,2600.12,2627.50,2859.81,599.99,600.82,54.55,0000 0000 0000 0000 000000
2015-10-19 01:48:56,0.14,2.51,0.00,21.51,27.27,30.44,14.73,48.14,1019.57,2035.00,2597.84,2625.86,2858.03,600.12,600.91,54.60,0000 0000 0000 0000 000000
2015-10-19 01:53:57,0.13,2.52,0.00,21.53,27.27,30.44,14.70,48.16,1019.60,2035.00,2595.50,2624.24,2856.19,599.89,600.82,54.65,0000 0000 0000 0000 000000
2015-10-19 01:58:59,0.17,2.53,0.00,21.54,27.28,30.44,14.73,48.15,1019.61,2035.00,2593.05,2622.61,2854.19,600.15,600.89,54.70,0000 0000 0000 0000 000000
2015-10-19 02:04:00,0.10,2.53,0.00,21.52,27.30,30.47,14.76,48.23,1019.66,2034.99,2591.04,2621.26,2852.51,599.69,600.50,54.75,0000 0000 0000 0000 000000
2015-10-19 02:09:01,0.07,2.54,0.00,21.53,27.30,30.49,14.74,48.25,1019.86,2034.99,2589.82,2620.48,2851.73,599.84,600.76,54.80,0000 0000 0000 0000 000000
2015-10-19 02:14:02,0.09,2.54,0.00,21.54,27.30,30.47,14.79,48.18,1019.87,2034.99,2588.34,2619.40,2850.55,600.15,601.01,54.85,0000 0000 0000 0000 000000
2015-10-19 02:19:04,0.09,2.55,0.00,21.54,27.30,30.48,14.76,48.11,1019.82,2034.99,2586.71,2618.45,2849.50,600.15,600.97,54.90,0000 0000 0000 0000 000000
2015-10-19 02:24:05,0.10,2.55,0.00,21.59,27.30,30.46,14.63,48.07,1019.85,2034.99,2584.87,2617.24,2848.24,599.56,600.35,54.95,0000 0000 0000 0000 000000
2015-10-19 02:29:07,0.21,2.56,0.00,21.75,27.31,30.44,14.66,48.22,1019.84,2034.99,2582.32,2615.30,2845.99,599.80,600.28,55.00,0000 0000 0000 0000 000000
2015-10-19 02:34:08,0.12,2.57,0.00,21.92,27.32,30.44,14.68,48.17,1019.81,2034.95,2579.91,2613.36,2843.85,599.74,599.85,55.05,0000 0000 0000 0000 000000
2015-10-19 02:39:09,0.09,2.58,0.00,22.02,27.35,30.44,14.59,48.07,1019.86,2034.88,2578.36,2612.12,2842.43,599.69,599.67,55.10,0000 0000 0000 0000 000000
2015-10-19 02:44:11,0.10,2.58,0.00,22.22,27.36,30.44,14.66,48.01,1019.86,2034.88,2576.85,2611.09,2841.39,600.05,599.61,55.15,0000 0000 0000 0000 000000
2015-10-19 02:49:12,0.05,2.58,0.00,22.32,27.38,30.46,14.64,48.03,1019.89,2034.69,2575.54,2610.09,2840.37,599.81,599.06,55.20,0000 0000 0000 0000 000000
2015-10-19 02:54:13,0.03,2.59,0.00,22.40,27.40,30.47,14.70,48.04,1019.81,2034.32,2574.32,2609.12,2839.40,600.15,599.39,55.25,0000 0000 0000 0000 000000
2015-10-19 02:59:14,0.04,2.59,0.00,22.56,27.42,30.49,14.61,48.13,1019.73,2034.10,2573.38,2608.41,2838.88,600.16,598.90,55.30,0000 0000 0000 0000 000000
2015-10-19 03:04:15,0.04,2.59,0.00,22.62,27.45,30.51,14.49,48.06,1019.82,2034.04,2572.71,2607.87,2838.06,599.74,598.42,55.35,0000 0000 0000 0000 000000
2015-10-19 03:09:16,0.11,2.59,0.00,22.72,27.47,30.51,14.67,48.13,1019.68,2034.01,2571.16,2606.75,2836.85,600.23,598.65,55.40,0000 0000 0000 0000 000000
2015-10-19 03:14:18,0.04,2.60,0.00,22.79,27.49,30.52,14.65,48.18,1019.66,2034.00,2570.06,2606.00,2836.03,600.03,598.24,55.45,0000 0000 0000 0000 000000
2015-10-19 03:19:19,0.07,2.60,0.00,22.89,27.51,30.54,14.59,48.13,1019.78,2034.00,2569.32,2605.28,2835.35,599.70,597.83,55.51,0000 0000 0000 0000 000000
2015-10-19 03:24:20,0.06,2.60,0.00,22.98,27.54,30.54,14.58,48.09,1019.84,2033.99,2568.45,2604.66,2834.63,599.81,597.78,55.56,0000 0000 0000 0000 000000
2015-10-19 03:29:22,0.08,2.61,0.00,23.06,27.56,30.56,14.62,48.07,1019.87,2033.96,2567.12,2603.71,2833.62,599.74,597.60,55.61,0000 0000 0000 0000 000000
2015-10-19 03:34:23,0.11,2.61,0.00,23.12,27.58,30.57,14.55,47.96,1019.89,2033.86,2565.31,2602.38,2832.24,599.90,597.62,55.66,0000 0000 0000 0000 000000
2015-10-19 03:39:24,0.04,2.62,0.00,23.15,27.60,30.59,14.62,48.03,1019.97,2033.31,2563.45,2601.03,2830.81,600.01,597.69,55.71,0000 0000 0000 0000 000000
2015-10-19 03:44:25,0.09,2.62,0.00,23.22,27.62,30.60,14.67,48.04,1020.02,2033.09,2561.88,2599.87,2829.62,600.31,597.91,55.76,0000 0000 0000 0000 000000
2015-10-19 03:49:27,0.11,2.63,0.00,23.27,27.65,30.60,14.55,48.00,1020.03,2033.05,2560.23,2598.67,2828.33,599.84,597.29,55.81,0000 0000 0000 0000 000000
2015-10-19 03:54:28,0.05,2.63,0.00,23.34,27.66,30.61,14.59,47.99,1020.03,2033.04,2559.06,2597.92,2827.43,600.23,597.53,55.86,0000 0000 0000 0000 000000
2015-10-19 03:59:30,0.06,2.63,0.00,23.41,27.68,30.60,14.52,47.88,1020.03,2033.00,2558.22,2597.08,2826.74,599.97,597.21,55.91,0000 0000 0000 0000 000000
2015-10-19 04:04:31,0.05,2.63,0.00,23.46,27.70,30.62,14.58,47.86,1020.04,2033.00,2557.49,2596.56,2825.97,600.69,597.72,55.96,0000 0000 0000 0000 000000
2015-10-19 04:09:32,0.06,2.64,0.00,23.49,27.72,30.63,14.53,47.89,1020.04,2033.00,2556.30,2595.78,2825.10,600.21,597.27,56.01,0000 0000 0000 0000 000000
2015-10-19 04:14:34,0.05,2.64,0.00,23.53,27.73,30.60,14.60,47.83,1020.04,2032.99,2555.38,2595.04,2824.67,600.15,597.19,56.06,0000 0000 0000 0000 000000
2015-10-19 04:19:35,0.01,2.64,0.00,23.58,27.75,30.63,14.55,47.88,1020.05,2032.97,2554.92,2594.94,2824.02,599.99,596.91,56.11,0000 0000 0000 0000 000000
2015-10-19 04:24:36,0.05,2.65,0.00,23.63,27.77,30.64,14.46,47.92,1020.05,2032.96,2554.22,2594.28,2823.86,599.77,596.55,56.16,0000 0000 0000 0000 000000
2015-10-19 04:29:38,0.04,2.65,0.00,23.66,27.77,30.65,14.49,47.80,1020.05,2032.96,2553.37,2593.94,2823.07,599.82,596.42,56.21,0000 0000 0000 0000 000000
2015-10-19 04:34:39,0.04,2.65,0.00,23.69,27.80,30.66,14.49,47.83,1020.05,2032.90,2552.75,2593.19,2822.66,600.04,596.60,56.26,0000 0000 0000 0000 000000
2015-10-19 04:39:40,0.07,2.65,0.00,23.71,27.80,30.65,14.53,47.73,1020.04,2032.75,2551.59,2592.43,2821.73,600.16,596.78,56.31,0000 0000 0000 0000 000000
2015-10-19 04:44:42,0.02,2.66,0.00,23.72,27.82,30.68,14.45,47.93,1020.07,2032.65,2550.63,2591.99,2821.03,599.51,596.14,56.36,0000 0000 0000 0000 000000
2015-10-19 04:49:43,0.01,2.66,0.00,23.74,27.82,30.68,14.50,47.88,1020.07,2032.27,2549.94,2591.20,2820.61,599.48,596.11,56.42,0000 0000 0000 0000 000000
2015-10-19 04:54:44,0.04,2.66,0.00,23.72,27.83,30.69,14.50,47.83,1020.06,2032.07,2548.97,2590.58,2819.89,599.87,596.46,56.47,0000 0000 0000 0000 000000
2015-10-19 04:59:45,0.04,2.66,0.00,23.73,27.85,30.67,14.48,47.90,1020.08,2032.03,2548.08,2590.01,2819.10,599.95,596.47,56.52,0000 0000 0000 0000 000000
2015-10-19 05:04:46,0.11,2.66,0.00,23.74,27.85,30.67,14.52,47.90,1020.11,2032.03,2546.62,2589.01,2818.15,600.03,596.57,56.57,0000 0000 0000 0000 000000
2015-10-19 05:09:47,0.10,2.67,0.00,23.74,27.85,30.68,14.51,47.81,1020.10,2032.03,2544.74,2587.81,2816.90,599.95,596.61,56.62,0000 0000 0000 0000 000000
2015-10-19 05:14:48,0.14,2.68,0.00,23.76,27.86,30.70,14.48,47.74,1020.07,2032.01,2542.90,2586.37,2815.45,599.96,596.48,56.67,0000 0000 0000 0000 000000
2015-10-19 05:19:50,0.18,2.69,0.00,23.76,27.87,30.70,14.53,47.71,1020.06,2032.00,2539.87,2584.33,2813.34,599.85,596.43,56.72,0000 0000 0000 0000 000000
2015-10-19 05:24:51,0.16,2.69,0.00,23.78,27.87,30.71,14.52,47.79,1020.06,2032.00,2537.26,2582.53,2811.46,599.95,596.37,56.77,0000 0000 0000 0000 000000
2015-10-19 05:29:53,0.10,2.70,0.00,23.78,27.87,30.71,14.51,47.93,1020.10,2032.00,2535.41,2581.27,2810.11,599.57,596.17,56.82,0000 0000 0000 0000 000000
2015-10-19 05:34:54,0.10,2.71,0.00,23.76,27.88,30.72,14.46,47.86,1020.18,2032.00,2533.75,2580.10,2808.85,599.73,596.34,56.87,0000 0000 0000 0000 000000
2015-10-19 05:39:55,0.06,2.71,0.00,23.71,27.89,30.75,14.50,47.78,1020.24,2032.00,2532.68,2579.13,2808.04,600.02,596.81,56.92,0000 0000 0000 0000 000000
2015-10-19 05:44:57,0.01,2.71,0.00,23.72,27.90,30.75,14.61,47.85,1020.32,2032.00,2532.04,2579.01,2807.91,600.23,597.05,56.97,0000 0000 0000 0000 000000
2015-10-19 05:49:58,0.09,2.72,0.00,23.71,27.90,30.75,14.53,47.92,1020.44,2032.00,2530.96,2578.18,2806.82,600.09,596.99,57.02,0000 0000 0000 0000 000000
2015-10-19 05:54:59,0.06,2.72,0.00,23.73,27.90,30.74,14.64,47.88,1020.48,2032.00,2530.04,2577.12,2805.95,600.25,597.07,57.07,0000 0000 0000 0000 000000
2015-10-19 06:00:00,0.05,2.72,0.00,23.74,27.90,30.74,14.49,47.92,1020.48,2032.00,2529.51,2576.68,2805.13,599.76,596.56,57.12,0000 0000 0000 0000 000000
2015-10-19 06:05:02,0.02,2.72,0.00,23.75,27.91,30.76,14.55,47.92,1020.49,2032.00,2529.01,2576.05,2804.99,599.96,596.77,57.17,0000 0000 0000 0000 000000
2015-10-19 06:10:03,0.01,2.72,0.00,23.78,27.92,30.75,14.58,47.92,1020.51,2032.00,2528.92,2575.99,2804.78,599.95,596.77,57.22,0000 0000 0000 0000 000000
2015-10-19 06:15:04,0.05,2.73,0.00,23.79,27.92,30.74,14.52,47.94,1020.52,2032.00,2528.21,2575.59,2804.09,600.05,596.75,57.27,0000 0000 0000 0000 000000
2015-10-19 06:20:05,0.04,2.73,0.00,23.80,27.92,30.75,14.49,47.89,1020.52,2032.00,2527.96,2574.84,2803.31,599.60,596.32,57.32,0000 0000 0000 0000 000000
2015-10-19 06:25:06,0.04,2.73,0.00,23.82,27.92,30.74,14.54,47.87,1020.52,2032.00,2527.44,2574.11,2802.99,600.11,596.83,57.38,0000 0000 0000 0000 000000
2015-10-19 06:30:08,0.00,2.73,0.00,23.84,27.92,30.74,14.54,47.86,1020.52,2032.00,2527.05,2574.00,2802.97,600.12,596.85,57.43,0000 0000 0000 0000 000000
2015-10-19 06:35:09,0.00,2.73,0.00,23.82,27.92,30.76,14.49,47.93,1020.52,2032.00,2527.00,2574.00,2802.69,600.19,596.77,57.48,0000 0000 0000 0000 000000
2015-10-19 06:40:10,0.01,2.73,0.00,23.80,27.92,30.76,14.48,47.88,1020.52,2032.00,2526.97,2573.99,2802.21,599.86,596.58,57.53,0000 0000 0000 0000 000000
2015-10-19 06:45:11,0.01,2.73,0.00,23.81,27.92,30.76,14.45,47.83,1020.52,2032.00,2526.69,2573.95,2802.02,599.99,596.66,57.58,0000 0000 0000 0000 000000
2015-10-19 06:50:13,0.00,2.73,0.00,23.84,27.92,30.75,14.55,47.88,1020.53,2032.00,2526.18,2573.92,2802.00,599.91,596.52,57.63,0000 0000 0000 0000 000000
2015-10-19 06:55:14,0.01,2.74,0.00,23.85,27.92,30.75,14.59,47.83,1020.53,2032.00,2526.02,2573.62,2802.00,600.28,596.85,57.68,0000 0000 0000 0000 000000
2015-10-19 07:00:15,0.01,2.74,0.00,23.83,27.92,30.76,14.52,47.98,1020.56,2032.00,2525.98,2573.16,2801.99,599.84,596.54,57.73,0000 0000 0000 0000 000000
2015-10-19 07:05:16,0.02,2.74,0.00,23.81,27.92,30.75,14.51,47.93,1020.56,2032.00,2525.36,2573.01,2801.83,600.08,596.82,57.78,0000 0000 0000 0000 000000
2015-10-19 07:10:18,0.01,2.74,0.00,23.78,27.92,30.75,14.56,47.77,1020.58,2032.00,2525.01,2573.00,2801.23,600.10,596.93,57.83,0000 0000 0000 0000 000000
2015-10-19 07:15:19,0.00,2.74,0.00,23.77,27.92,30.76,14.54,47.90,1020.55,2032.00,2524.98,2572.98,2801.05,600.20,597.11,57.88,0000 0000 0000 0000 000000
2015-10-19 07:20:20,0.00,2.74,0.00,23.77,27.92,30.76,14.47,47.89,1020.57,2032.00,2524.98,2572.98,2801.03,599.67,596.55,57.93,0000 0000 0000 0000 000000
2015-10-19 07:25:21,0.00,2.74,0.00,23.74,27.92,30.77,14.51,47.87,1020.68,2032.00,2524.90,2572.97,2801.01,599.60,596.58,57.98,0000 0000 0000 0000 000000
2015-10-19 07:30:23,0.02,2.74,0.00,23.73,27.92,30.76,14.54,47.91,1020.78,2032.00,2524.22,2572.88,2801.00,599.99,597.04,58.03,0000 0000 0000 0000 000000
2015-10-19 07:35:24,0.01,2.74,0.00,23.72,27.92,30.77,14.48,47.80,1020.85,2032.00,2524.01,2572.57,2801.00,600.21,597.12,58.08,0000 0000 0000 0000 000000
2015-10-19 07:40:25,-0.00,2.74,0.00,23.72,27.92,30.78,14.53,48.04,1020.92,2032.00,2524.00,2572.64,2801.00,599.82,596.85,58.13,0000 0000 0000 0000 000000
2015-10-19 07:45:27,0.01,2.74,0.00,23.72,27.92,30.77,14.65,47.94,1020.96,2032.00,2524.00,2572.22,2800.98,600.26,597.38,58.18,0000 0000 0000 0000 000000
2015-10-19 07:50:28,0.00,2.74,0.00,23.71,27.92,30.78,14.56,48.01,1020.94,2032.00,2523.99,2572.16,2800.98,600.29,597.34,58.23,0000 0000 0000 0000 000000
2015-10-19 07:55:29,0.00,2.74,0.00,23.72,27.92,30.77,14.56,47.97,1020.89,2032.00,2523.97,2572.07,2800.95,599.78,597.01,58.28,0000 0000 0000 0000 000000
2015-10-19 08:00:30,0.00,2.74,0.00,23.70,27.92,30.77,14.46,47.98,1020.98,2032.00,2523.97,2572.06,2800.94,599.54,596.92,58.34,0000 0000 0000 0000 000000
2015-10-19 08:05:31,0.00,2.74,0.00,23.70,27.92,30.78,14.63,47.98,1021.01,2032.00,2523.84,2572.02,2800.82,600.19,597.43,58.39,0000 0000 0000 0000 000000
2015-10-19 08:10:33,0.00,2.74,0.00,23.71,27.92,30.77,14.51,47.93,1021.01,2032.00,2523.79,2572.01,2800.75,600.16,597.36,58.44,0000 0000 0000 0000 000000
2015-10-19 08:15:34,0.00,2.74,0.00,23.71,27.92,30.78,14.54,47.90,1021.01,2032.00,2523.65,2572.02,2800.58,600.29,597.57,58.49,0000 0000 0000 0000 000000
2015-10-19 08:20:35,0.01,2.74,0.00,23.72,27.92,30.77,14.57,47.84,1021.02,2032.00,2523.54,2572.01,2800.37,600.08,597.30,58.54,0000 0000 0000 0000 000000
2015-10-19 08:25:37,0.01,2.74,0.00,23.72,27.92,30.78,14.50,47.95,1021.01,2032.00,2523.00,2571.99,2800.01,600.14,597.22,58.59,0000 0000 0000 0000 000000
2015-10-19 08:30:38,0.00,2.74,0.00,23.71,27.92,30.78,14.54,47.95,1021.01,2031.99,2522.97,2571.99,2800.00,599.91,597.08,58.64,0000 0000 0000 0000 000000
2015-10-19 08:35:39,0.00,2.74,0.00,23.71,27.92,30.81,14.54,47.83,1021.02,2031.99,2522.95,2571.99,2800.00,600.21,597.39,58.69,0000 0000 0000 0000 000000
2015-10-19 08:40:41,0.00,2.74,0.00,23.75,27.92,30.76,14.58,47.91,1021.02,2031.99,2522.83,2571.98,2800.00,599.85,596.88,58.74,0000 0000 0000 0000 000000
2015-10-19 08:45:42,0.01,2.75,0.00,23.77,27.92,30.78,14.49,47.97,1021.03,2031.99,2522.27,2571.93,2799.99,599.81,596.89,58.79,0000 0000 0000 0000 000000
2015-10-19 08:50:43,0.05,2.75,0.00,23.78,27.92,30.79,14.57,47.85,1021.03,2031.99,2521.77,2571.46,2799.65,600.11,597.24,58.84,0000 0000 0000 0000 000000
2015-10-19 08:55:45,0.03,2.75,0.00,23.79,27.92,30.79,14.48,47.82,1021.04,2031.99,2520.68,2570.95,2798.98,600.01,597.05,58.89,0000 0000 0000 0000 000000
2015-10-19 09:00:46,0.06,2.75,0.00,23.80,27.92,30.77,14.55,47.77,1021.10,2031.99,2520.02,2570.26,2798.25,600.08,597.11,58.94,0000 0000 0000 0000 000000
2015-10-19 09:05:47,0.00,2.75,0.00,23.80,27.92,30.77,14.54,47.95,1021.10,2031.99,2519.93,2570.03,2798.04,599.74,596.89,58.99,0000 0000 0000 0000 000000
2015-10-19 09:10:48,0.02,2.75,0.00,23.80,27.92,30.77,14.55,47.95,1021.05,2031.99,2519.39,2570.00,2798.00,600.33,597.41,59.04,0000 0000 0000 0000 000000
2015-10-19 09:15:49,0.00,2.75,0.00,23.81,27.92,30.76,14.55,47.72,1021.05,2031.99,2519.02,2570.00,2798.00,600.10,597.12,59.09,0000 0000 0000 0000 000000
2015-10-19 09:20:51,0.07,2.76,0.00,23.82,27.92,30.75,14.49,47.86,1021.10,2031.99,2518.26,2569.44,2797.36,599.84,596.89,59.14,0000 0000 0000 0000 000000
2015-10-19 09:25:52,0.04,2.76,0.00,23.82,27.92,30.74,14.51,47.87,1021.29,2031.99,2517.42,2568.94,2796.73,599.81,596.95,59.19,0000 0000 0000 0000 000000
2015-10-19 09:30:53,0.06,2.76,0.00,23.82,27.92,30.76,14.44,47.82,1021.49,2031.99,2516.46,2568.16,2796.03,599.44,596.76,59.25,0000 0000 0000 0000 000000
2015-10-19 09:35:55,0.00,2.76,0.00,23.82,27.90,30.74,14.55,47.78,1021.50,2031.99,2516.00,2568.00,2795.99,599.92,597.13,59.30,0000 0000 0000 0000 000000
2015-10-19 09:40:56,0.02,2.76,0.00,23.82,27.90,30.74,14.55,47.93,1021.50,2031.99,2515.57,2567.97,2795.87,600.07,597.23,59.35,0000 0000 0000 0000 000000
2015-10-19 09:45:57,0.04,2.77,0.00,23.83,27.90,30.75,14.56,47.91,1021.50,2031.99,2515.01,2567.52,2795.16,599.96,597.28,59.40,0000 0000 0000 0000 000000
2015-10-19 09:50:59,0.03,2.77,0.00,23.83,27.90,30.75,14.53,47.87,1021.50,2031.99,2514.46,2567.03,2795.00,599.93,597.17,59.45,0000 0000 0000 0000 000000
2015-10-19 09:56:00,0.02,2.77,0.00,23.82,27.90,30.73,14.53,47.73,1021.50,2031.99,2513.93,2566.95,2794.63,600.01,597.26,59.50,0000 0000 0000 0000 000000
2015-10-19 10:01:01,0.04,2.77,0.00,23.82,27.90,30.74,14.54,47.88,1021.50,2031.99,2513.25,2566.53,2794.05,599.63,596.80,59.55,0000 0000 0000 0000 000000
2015-10-19 10:06:03,0.01,2.77,0.00,23.81,27.90,30.75,14.58,47.92,1021.50,2031.99,2513.02,2566.19,2794.01,600.29,597.46,59.60,0000 0000 0000 0000 000000
2015-10-19 10:11:04,0.00,2.77,0.00,23.81,27.90,30.75,14.48,47.98,1021.50,2031.99,2512.99,2566.04,2793.99,599.88,597.25,59.65,0000 0000 0000 0000 000000
2015-10-19 10:16:05,0.01,2.77,0.00,23.82,27.90,30.75,14.54,47.85,1021.50,2031.99,2512.72,2566.01,2793.98,600.08,597.38,59.70,0000 0000 0000 0000 000000
2015-10-19 10:21:06,0.02,2.77,0.00,23.82,27.89,30.72,14.62,48.02,1021.50,2031.99,2512.11,2566.00,2793.81,600.17,597.48,59.75,0000 0000 0000 0000 000000
2015-10-19 10:26:08,0.04,2.78,0.00,23.82,27.88,30.72,14.53,47.86,1021.50,2031.99,2511.87,2565.69,2793.11,600.06,597.28,59.80,0000 0000 0000 0000 000000
2015-10-19 10:31:09,0.04,2.78,0.00,23.80,27.88,30.73,14.49,47.93,1021.50,2031.99,2511.00,2565.02,2792.76,600.11,597.35,59.85,0000 0000 0000 0000 000000
2015-10-19 10:36:11,0.06,2.78,0.00,23.80,27.87,30.70,14.53,47.99,1021.50,2031.99,2510.13,2564.43,2792.03,599.78,597.03,59.90,0000 0000 0000 0000 000000
2015-10-19 10:41:12,0.02,2.78,0.00,23.80,27.87,30.72,14.48,48.01,1021.50,2031.99,2509.75,2564.01,2791.84,599.74,597.09,59.95,0000 0000 0000 0000 000000
2015-10-19 10:46:13,0.08,2.79,0.00,23.80,27.87,30.71,14.54,48.07,1021.50,2031.99,2508.70,2563.25,2790.98,599.87,597.15,60.00,0000 0000 0000 0000 000000
2015-10-19 10:51:14,0.06,2.79,0.00,23.80,27.87,30.71,14.57,47.97,1021.50,2031.99,2507.76,2562.69,2790.19,600.36,597.65,60.05,0000 0000 0000 0000 000000
2015-10-19 10:56:15,0.03,2.79,0.00,23.78,27.87,30.72,14.49,47.83,1021.49,2031.99,2507.02,2562.02,2789.88,599.72,597.00,60.10,0000 0000 0000 0000 000000
2015-10-19 11:01:16,0.02,1.02,0.00,23.74,27.88,30.70,12.69,42.00,1021.48,2033.30,3212.88,3026.63,3293.31,530.12,527.81,0.02,0000 0000 0000 0000 000002
2015-10-19 11:06:18,0.02,0.00,0.00,23.75,27.87,30.70,14.54,47.30,1021.45,2034.02,3617.45,3293.99,3584.19,599.92,597.30,0.04,0000 0000 0000 0000 000000
2015-10-19 11:11:19,0.04,0.00,0.00,23.75,27.87,30.71,14.50,47.27,1021.33,2034.01,3612.69,3291.03,3581.14,599.67,597.02,0.09,0000 0000 0000 0000 000000
2015-10-19 11:16:20,0.09,0.02,0.00,23.73,27.87,30.69,14.50,47.21,1021.48,2034.01,3607.29,3287.39,3577.23,600.10,597.49,0.14,0000 0000 0000 0000 000000
2015-10-19 11:21:21,0.10,0.02,0.00,23.75,27.86,30.69,14.51,47.32,1021.49,2034.00,3604.60,3285.57,3575.18,599.35,596.76,0.19,0000 0000 0000 0000 000000
2015-10-19 11:26:22,0.05,0.02,0.00,23.73,27.85,30.69,14.56,47.34,1021.50,2034.00,3604.00,3285.01,3574.93,600.06,597.45,0.24,0000 0000 0000 0000 000000
2015-10-19 11:31:24,0.02,0.02,0.00,23.73,27.85,30.70,14.61,47.27,1021.47,2034.01,3603.64,3285.00,3574.47,600.21,597.58,0.29,0000 0000 0000 0000 000000
2015-10-19 11:36:25,0.01,0.03,0.00,23.73,27.85,30.70,14.52,47.27,1021.46,2034.02,3603.03,3284.99,3574.06,600.33,597.77,0.34,0000 0000 0000 0000 000000
2015-10-19 11:41:26,0.00,0.03,0.00,23.73,27.85,30.69,14.49,47.27,1021.40,2034.05,3602.98,3284.95,3574.00,599.82,597.18,0.39,0000 0000 0000 0000 000000
2015-10-19 11:46:28,0.03,0.03,0.00,23.73,27.85,30.70,14.46,47.23,1021.36,2034.02,3602.27,3284.38,3573.85,600.17,597.57,0.44,0000 0000 0000 0000 000000
2015-10-19 11:51:29,0.02,0.03,0.00,23.72,27.85,30.69,14.56,47.26,1021.41,2034.03,3601.89,3284.02,3573.14,600.40,597.84,0.49,0000 0000 0000 0000 000000
2015-10-19 11:56:30,0.01,0.03,0.00,23.72,27.85,30.68,14.57,47.24,1021.25,2034.04,3601.09,3283.98,3572.99,600.06,597.44,0.54,0000 0000 0000 0000 000000
2015-10-19 12:01:31,0.04,0.03,0.00,23.72,27.85,30.68,14.57,47.12,1021.31,2034.06,3600.47,3283.32,3572.29,599.99,597.32,0.59,0000 0000 0000 0000 000000
2015-10-19 12:06:32,0.09,0.04,0.00,23.72,27.85,30.68,14.49,47.18,1021.37,2034.06,3598.39,3281.94,3570.83,599.88,597.34,0.64,0000 0000 0000 0000 000000
2015-10-19 12:11:34,0.09,0.04,0.00,23.73,27.85,30.68,14.53,47.17,1021.26,2034.07,3596.12,3280.39,3569.17,599.66,596.93,0.69,0000 0000 0000 0000 000000
2015-10-19 12:16:35,0.11,0.04,0.00,23.73,27.85,30.70,14.51,47.29,1021.22,2034.05,3593.69,3278.78,3567.44,599.80,597.05,0.74,0000 0000 0000 0000 000000
2015-10-19 12:21:36,0.09,0.05,0.00,23.72,27.85,30.70,14.50,47.17,1021.21,2034.03,3591.06,3277.06,3565.53,600.11,597.38,0.79,0000 0000 0000 0000 000000
2015-10-19 12:26:37,0.09,0.06,0.00,23.72,27.85,30.68,14.51,47.23,1021.12,2034.04,3588.60,3275.48,3563.74,599.73,596.97,0.84,0000 0000 0000 0000 000000
2015-10-19 12:31:38,0.08,0.06,0.00,23.69,27.85,30.69,14.51,47.33,1021.06,2034.04,3586.53,3274.06,3562.22,600.16,597.49,0.89,0000 0000 0000 0000 000000
2015-10-19 12:36:40,0.13,0.07,0.00,23.71,27.85,30.68,14.53,47.30,1021.13,2034.06,3583.87,3272.25,3560.21,600.08,597.34,0.94,0000 0000 0000 0000 000000
2015-10-19 12:41:41,0.13,0.07,0.00,23.72,27.85,30.67,14.52,47.35,1021.25,2034.04,3580.68,3270.02,3557.84,600.07,597.40,1.00,0000 0000 0000 0000 000000
2015-10-19 12:46:42,0.04,0.08,0.00,23.72,27.84,30.70,14.56,47.22,1021.21,2034.02,3579.09,3269.02,3556.82,600.10,597.38,1.05,0000 0000 0000 0000 000000
2015-10-19 12:51:43,0.03,0.08,0.00,23.71,27.84,30.66,14.54,47.30,1021.35,2034.01,3578.37,3268.83,3556.10,600.23,597.65,1.10,0000 0000 0000 0000 000000
2015-10-19 12:56:45,0.01,0.08,0.00,23.71,27.83,30.67,14.52,47.28,1021.43,2034.02,3578.02,3268.27,3556.00,599.65,597.16,1.15,0000 0000 0000 0000 000000